Location: Nashville
(36.1660°N, 86.7840°W)
Time: 03:16:12
(UTC-05:00)

Gurwin Techsat 1B - Visible Passes

Search period start: 16 May 2022 00:00
Search period end: 26 May 2022 00:00
Orbit: 812 x 813 km, 98.8° (Epoch: 15 May)

Date Brightness Start Highest point End Pass type
(mag) Time Alt. Az. Time Alt. Az. Time Alt. Az.
16 May 8.8 03:05:01 10° NNE 03:10:19 67° ESE 03:11:34 50° SSE visible
16 May 10.5 04:46:52 10° NNW 04:49:36 14° WNW 04:52:19 10° W visible
17 May 9.5 02:42:20 10° NNE 02:47:19 40° E 02:48:24 36° SE visible
17 May 10.0 04:22:51 10° NNW 04:26:57 23° WNW 04:29:36 16° WSW visible
18 May 10.3 02:20:02 10° NE 02:24:16 24° E 02:25:15 23° ESE visible
18 May 9.3 03:59:21 10° N 04:04:13 37° WNW 04:06:27 26° WSW visible
19 May 10.9 01:58:25 10° ENE 02:01:08 14° E 02:02:04 13° ESE visible
19 May 8.7 03:36:09 10° N 03:41:24 62° WNW 03:43:16 38° SW visible
20 May 8.6 03:13:10 10° NNE 03:18:30 80° ESE 03:20:06 47° S visible
20 May 10.6 04:55:46 10° NW 04:57:41 12° WNW 04:59:35 10° W visible
21 May 9.3 02:50:25 10° NNE 02:55:33 47° E 02:56:56 38° SE visible
21 May 10.2 04:31:20 10° NNW 04:35:03 20° WNW 04:38:08 12° WSW visible
22 May 10.0 02:27:58 10° NE 02:32:31 28° E 02:33:46 26° ESE visible
22 May 9.6 04:07:42 10° N 04:12:21 31° WNW 04:14:57 21° WSW visible
23 May 10.7 02:06:01 10° NE 02:09:24 17° E 02:10:35 16° ESE visible
23 May 8.9 03:44:25 10° N 03:49:34 52° WNW 03:51:47 31° SW visible
24 May 8.5 03:21:22 10° NNE 03:26:42 86° WNW 03:28:37 41° SSW visible
25 May 9.0 02:58:32 10° NNE 03:03:46 57° E 03:05:26 40° SSE visible
25 May 10.4 04:39:54 10° NNW 04:43:09 17° WNW 04:46:24 10° WSW visible
